Location: D?uga
(50.2667°N, 19.7833°E)
Time: 23:36:00
(UTC+00:00)

RESURS DK-1 - Pass Details

Date: 23 May 2024
Orbit: 541 x 547 km, 69.9° (Epoch: 22 June)

Event Time Altitude Azimuth Distance (km) Brightness Sun altitude
Rises 00:26:54 0° 333° (NNW) 2,721 6.4 -15.1°
Reaches altitude 10° 00:29:13 10° 342° (NNW) 1,826 5.6 -14.9°
Maximum altitude 00:33:02 37° 51° (NE) 866 3.9 -14.6°
Drops below altitude 10° 00:36:49 10° 119° (ESE) 1,818 5.0 -14.4°
Sets 00:39:07 0° 128° (SE) 2,709 5.8 -14.2°
